SCP
-0 -0 -0 -0 0 0 0 0 0 0 0 0 0 0 0 0 0 0 0 0 0 0 0 0 0 0 0 0 0 0 0 0
-0 -0 -0 -0 0 0 0 0 0 0 0 0 0 0 0 0 0 0 0 0 0 0 0 0 0 0 0 0 0 0 0 0
-0 0 0 0 0 0 0 0 0 0 0 0 0 0 0 0 0 0 0 0 0 0 0 0 0 0 0 0 0 0 0 0
0 0 0 0 0 0 0 0 0 0 0 0 0 0 0 0 0 0 0 0 0 0 0 0 0 0 0 0 0 0 0 0
0 0 0 0 0 0 0 0 0 0 0 0 0 0 0 0 0 0 0 0 0 0 0 0 0 -0 -0 0 0 0 0 0
0 0 0 0 0 0 0 0 0 0 0 0 0 0 0 0 0 0 0 0 0 -0 -0 -0 -0 -0 -0 0 0 -0 -0 -0
0 0 0 0 0 0 0 -0 -0 0 0 0 0 0 0 0 0 0 0 0 0 -0 -0 -0 -0 -0 -0 -0 0 0 -0 -0
0 0 0 0 0 0 0 0 0 0 0 0 0 0 0 0 0 0 0 0 0 0 0 0 0 0 -0 -0 -0 -0 -0 -0
0 0 0 -0 -0 0 -0 0 0 0 0 0 0 0 0 0 0 0 0 0 0 0 0 0 0 0 -0 -0 -0 0 0 0
-0 -0 -0 0 0 0 0 0 0 0 0 0 0 0 0 0 0 0 0 0 0 0 0 0 0 0 0 0 0 -0 0 -0
0 0 0 0 0 0 0 0 0 0 0 0 0 0 0 0 0 0 0 0 0 0 0 0 0 0 0 -0 0 0 -0 -0
0 0 0 0 0 0 0 0 0 0 0 0 0 0 0 0 0 0 0 -0 -0 -0 0 0 0 0 -0 0 -0 0 0 0
0 0 0 0 0 0 0 0 0 0 0 0 0 0 0 -0 -0 0 0 0 0 0 0 0 0 0 0 0 0 -0 0 0
0 0 0 0 0 0 0 0 0 0 -0 0 0 0 0 0 0 0 0 0 0 0 0 0 0 0 -0 0 -0 0 0 0
0 0 0 0 0 0 0 0 0 0 0 0 0 0 0 0 0 0 0 0 0 -0 -0 -0 0 0 0 0 0 -0 -0 0
-0 -0 0 0 0 0 0 0 0 0 0 0 0 0 0 0 0 0 0 -0 -0 0 0 0 0 0 0 0 0 0 0 0
-0 -0 0 0 0 0 0 0 0 0 0 0 0 0 0 0 0 -0 -0 -0 -0 0 0 0 0 0 0 0 0 0 0 0
-0 -0 0 0 0 0 0 0 0 -0 -0 -0 0 0 0 -0 -0 -0 -0 -0 -0 -0 0 0 0 0 0 0 0 0 0 0
-0 -0 0 0 0 0 0 0 0 0 0 0 0 0 -0 -0 -0 0 0 0 0 -0 -0 0 0 0 0 0 0 0 0 0
-0 -0 -0 0 0 0 0 0 0 -0 -0 -0 -0 -0 -0 -0 0 0 0 0 -0 0 -0 0 0 0 0 0 0 0 0 0
Wind_Speed_500mb
73 66 65 64 68 68 69 69 65 61 62 66 61 53 48 42 38 43 50 65 54 47 46 50 46 44 40 33 35 35 43 50
58 64 62 68 68 63 54 59 60 58 57 55 49 51 42 42 41 37 39 35 45 58 44 40 46 46 38 33 36 47 52 56
54 64 67 65 63 71 72 65 63 55 55 54 53 47 37 39 29 24 31 32 32 32 40 40 37 42 43 43 44 50 53 43
69 67 67 71 68 67 63 61 59 55 49 46 46 38 32 25 24 25 26 19 10 6 19 25 30 36 41 46 51 52 37 34
63 63 65 65 62 60 63 60 55 50 45 40 35 26 28 22 18 17 23 25 18 21 25 28 35 42 47 39 34 33 31 26
57 57 57 53 52 55 54 54 52 47 34 30 28 23 23 20 21 18 20 18 19 21 21 24 30 30 25 26 27 24 22 20
51 47 44 47 46 48 51 48 46 39 29 26 20 21 19 18 18 18 19 18 14 14 18 18 18 16 15 14 10 9 26 38
40 39 38 39 40 41 42 43 40 39 33 27 20 20 19 18 17 19 19 20 17 16 17 20 22 22 21 12 34 44 48 37
34 34 35 36 37 38 40 37 37 31 29 33 33 31 25 20 20 23 23 25 27 31 40 44 47 50 50 45 37 32 29 35
31 34 35 35 32 31 32 34 31 30 29 31 29 27 27 24 23 26 26 26 33 32 36 36 33 34 39 47 48 54 51 41
29 32 33 33 32 29 29 29 28 27 25 27 28 27 31 34 34 36 42 41 38 48 58 61 59 54 47 43 41 33 25 24
29 31 32 33 32 29 30 29 26 26 28 30 32 38 41 42 43 40 47 62 65 57 47 43 41 43 36 31 27 22 21 20
26 29 30 33 36 38 35 31 29 34 35 37 41 50 64 69 70 65 57 50 46 48 50 48 43 38 37 34 35 34 28 23
25 37 45 51 49 53 56 60 59 57 64 66 65 65 60 57 56 54 52 50 46 44 44 42 41 40 35 28 27 27 25 19
36 46 47 48 49 48 47 45 45 49 53 55 56 55 54 53 51 49 49 49 49 48 43 37 33 32 28 25 23 21 19 21
42 42 41 38 38 38 35 37 46 51 51 53 54 53 52 52 51 47 42 40 41 39 36 32 28 25 24 22 20 15 21 27
40 38 35 33 35 39 44 47 47 49 47 46 44 42 37 35 36 36 36 35 34 32 25 25 24 22 20 20 19 22 21 23
35 32 27 24 28 31 24 24 25 25 27 27 27 27 26 25 25 27 26 26 26 24 24 25 22 18 30 35 38 38 35 31
37 31 26 21 23 28 24 14 7 9 15 20 28 26 26 26 25 22 21 20 21 22 24 23 21 24 30 33 35 36 37 37
39 30 24 19 19 21 17 15 24 28 31 30 25 24 21 22 21 25 24 24 26 28 28 29 29 33 33 34 34 33 32 32
Wind_Direction_500mb
337 338 341 340 337 334 330 327 325 321 315 311 310 305 298 297 291 289 276 262 264 268 273 274 278 279 272 263 267 278 292 302
341 340 339 335 336 332 327 324 321 317 319 319 316 310 301 298 290 292 288 287 276 264 268 272 262 265 265 275 290 296 302 304
339 336 335 336 332 331 330 331 331 333 328 325 320 318 311 295 300 305 308 290 277 271 261 269 282 289 290 280 289 294 291 291
337 337 335 334 334 336 337 336 333 330 328 328 326 321 319 320 308 307 306 308 271 261 258 270 295 301 301 290 293 291 285 283
336 333 331 335 340 340 339 337 337 334 331 333 335 328 331 329 324 317 322 321 319 305 289 291 301 301 297 288 283 286 284 271
333 333 337 342 344 342 344 344 343 339 339 340 344 342 340 346 349 336 325 324 318 325 326 324 315 299 296 295 290 281 275 181
334 339 343 347 347 348 349 356 356 1 1 355 11 10 17 3 5 8 358 355 353 333 333 329 336 341 328 323 307 249 163 150
342 349 356 353 357 358 359 8 12 19 25 25 10 356 355 353 353 4 22 23 24 23 36 44 52 50 40 82 129 123 116 104
354 1 1 359 1 7 12 16 22 26 36 32 29 38 41 46 26 30 42 57 69 82 88 87 89 90 91 92 80 69 89 103
4 6 9 10 8 12 19 21 24 25 26 27 35 37 39 37 45 55 70 76 97 93 95 93 98 98 84 92 94 95 99 96
10 11 15 17 18 19 19 15 14 14 23 42 45 51 62 67 72 83 93 94 91 96 94 90 91 88 85 80 80 79 68 57
15 20 25 26 25 29 35 35 43 48 54 61 69 75 77 78 80 93 94 98 98 89 78 75 72 79 75 63 66 70 69 68
27 32 45 48 52 55 57 54 59 67 72 78 85 90 93 96 87 89 87 83 75 73 73 74 75 68 67 71 71 74 80 79
57 79 84 80 67 70 72 71 75 79 89 86 91 97 95 89 88 86 83 79 73 72 74 75 74 76 80 70 75 74 77 71
98 102 91 82 76 71 66 64 72 80 84 87 90 90 88 83 80 80 82 80 80 81 81 77 74 73 67 57 51 56 55 40
119 107 97 82 68 58 57 81 93 92 90 88 87 85 85 85 81 83 87 85 81 77 74 68 65 62 55 47 34 42 60 56
129 115 103 86 73 71 87 91 93 93 91 87 84 84 87 89 83 85 83 80 79 78 70 60 51 42 42 47 45 53 56 54
142 133 118 98 78 67 79 102 88 86 86 84 86 84 85 86 85 86 82 73 72 68 60 48 38 46 53 55 59 59 59 57
155 147 133 111 82 70 68 65 95 88 85 93 101 95 85 87 84 74 60 60 59 59 55 44 33 44 55 59 60 59 58 56
163 159 146 116 89 75 74 86 93 97 101 100 113 113 94 84 71 54 53 58 61 61 61 61 60 63 60 59 58 57 56 52
Wind_Speed_850mb
73 66 65 64 68 68 69 69 65 61 62 66 61 53 48 42 38 43 50 65 54 47 46 50 46 44 40 33 35 35 43 50
58 64 62 68 68 63 54 59 60 58 57 55 49 51 42 42 41 37 39 35 45 58 44 40 46 46 38 33 36 47 52 56
54 64 67 65 63 71 72 65 63 55 55 54 53 47 37 39 29 24 31 32 32 32 40 40 37 42 43 43 44 50 53 43
69 67 67 71 68 67 63 61 59 55 49 46 46 38 32 25 24 25 26 19 10 6 19 25 30 36 41 46 51 52 37 34
63 63 65 65 62 60 63 60 55 50 45 40 35 26 28 22 18 17 23 25 18 21 25 28 35 42 47 39 34 33 31 26
57 57 57 53 52 55 54 54 52 47 34 30 28 23 23 20 21 18 20 18 19 21 21 24 30 30 25 26 27 24 22 20
51 47 44 47 46 48 51 48 46 39 29 26 20 21 19 18 18 18 19 18 14 14 18 18 18 16 15 14 10 9 26 38
40 39 38 39 40 41 42 43 40 39 33 27 20 20 19 18 17 19 19 20 17 16 17 20 22 22 21 12 34 44 48 37
34 34 35 36 37 38 40 37 37 31 29 33 33 31 25 20 20 23 23 25 27 31 40 44 47 50 50 45 37 32 29 35
31 34 35 35 32 31 32 34 31 30 29 31 29 27 27 24 23 26 26 26 33 32 36 36 33 34 39 47 48 54 51 41
29 32 33 33 32 29 29 29 28 27 25 27 28 27 31 34 34 36 42 41 38 48 58 61 59 54 47 43 41 33 25 24
29 31 32 33 32 29 30 29 26 26 28 30 32 38 41 42 43 40 47 62 65 57 47 43 41 43 36 31 27 22 21 20
26 29 30 33 36 38 35 31 29 34 35 37 41 50 64 69 70 65 57 50 46 48 50 48 43 38 37 34 35 34 28 23
25 37 45 51 49 53 56 60 59 57 64 66 65 65 60 57 56 54 52 50 46 44 44 42 41 40 35 28 27 27 25 19
36 46 47 48 49 48 47 45 45 49 53 55 56 55 54 53 51 49 49 49 49 48 43 37 33 32 28 25 23 21 19 21
42 42 41 38 38 38 35 37 46 51 51 53 54 53 52 52 51 47 42 40 41 39 36 32 28 25 24 22 20 15 21 27
40 38 35 33 35 39 44 47 47 49 47 46 44 42 37 35 36 36 36 35 34 32 25 25 24 22 20 20 19 22 21 23
35 32 27 24 28 31 24 24 25 25 27 27 27 27 26 25 25 27 26 26 26 24 24 25 22 18 30 35 38 38 35 31
37 31 26 21 23 28 24 14 7 9 15 20 28 26 26 26 25 22 21 20 21 22 24 23 21 24 30 33 35 36 37 37
39 30 24 19 19 21 17 15 24 28 31 30 25 24 21 22 21 25 24 24 26 28 28 29 29 33 33 34 34 33 32 32
Wind_Direction_850mb
337 338 341 340 337 334 330 327 325 321 315 311 310 305 298 297 291 289 276 262 264 268 273 274 278 279 272 263 267 278 292 302
341 340 339 335 336 332 327 324 321 317 319 319 316 310 301 298 290 292 288 287 276 264 268 272 262 265 265 275 290 296 302 304
339 336 335 336 332 331 330 331 331 333 328 325 320 318 311 295 300 305 308 290 277 271 261 269 282 289 290 280 289 294 291 291
337 337 335 334 334 336 337 336 333 330 328 328 326 321 319 320 308 307 306 308 271 261 258 270 295 301 301 290 293 291 285 283
336 333 331 335 340 340 339 337 337 334 331 333 335 328 331 329 324 317 322 321 319 305 289 291 301 301 297 288 283 286 284 271
333 333 337 342 344 342 344 344 343 339 339 340 344 342 340 346 349 336 325 324 318 325 326 324 315 299 296 295 290 281 275 181
334 339 343 347 347 348 349 356 356 1 1 355 11 10 17 3 5 8 358 355 353 333 333 329 336 341 328 323 307 249 163 150
342 349 356 353 357 358 359 8 12 19 25 25 10 356 355 353 353 4 22 23 24 23 36 44 52 50 40 82 129 123 116 104
354 1 1 359 1 7 12 16 22 26 36 32 29 38 41 46 26 30 42 57 69 82 88 87 89 90 91 92 80 69 89 103
4 6 9 10 8 12 19 21 24 25 26 27 35 37 39 37 45 55 70 76 97 93 95 93 98 98 84 92 94 95 99 96
10 11 15 17 18 19 19 15 14 14 23 42 45 51 62 67 72 83 93 94 91 96 94 90 91 88 85 80 80 79 68 57
15 20 25 26 25 29 35 35 43 48 54 61 69 75 77 78 80 93 94 98 98 89 78 75 72 79 75 63 66 70 69 68
27 32 45 48 52 55 57 54 59 67 72 78 85 90 93 96 87 89 87 83 75 73 73 74 75 68 67 71 71 74 80 79
57 79 84 80 67 70 72 71 75 79 89 86 91 97 95 89 88 86 83 79 73 72 74 75 74 76 80 70 75 74 77 71
98 102 91 82 76 71 66 64 72 80 84 87 90 90 88 83 80 80 82 80 80 81 81 77 74 73 67 57 51 56 55 40
119 107 97 82 68 58 57 81 93 92 90 88 87 85 85 85 81 83 87 85 81 77 74 68 65 62 55 47 34 42 60 56
129 115 103 86 73 71 87 91 93 93 91 87 84 84 87 89 83 85 83 80 79 78 70 60 51 42 42 47 45 53 56 54
142 133 118 98 78 67 79 102 88 86 86 84 86 84 85 86 85 86 82 73 72 68 60 48 38 46 53 55 59 59 59 57
155 147 133 111 82 70 68 65 95 88 85 93 101 95 85 87 84 74 60 60 59 59 55 44 33 44 55 59 60 59 58 56
163 159 146 116 89 75 74 86 93 97 101 100 113 113 94 84 71 54 53 58 61 61 61 61 60 63 60 59 58 57 56 52